{"data":{"norad_id":48641,"epoch":"2026-09-19T16:50:11.185440Z","epoch_age_seconds":106174,"freshness":"FRESH","line1":"1 48641U 21044D   26262.70151835  .00004817  00000+0  16681-3 0  9996","line2":"2 48641  53.1580 291.1875 0001215  92.6484 267.4657 15.31711943293558","mean_motion":15.31711943,"eccentricity":0.0001215,"inclination_deg":53.158,"raan_deg":291.1875,"arg_perigee_deg":92.6484,"mean_anomaly_deg":267.4657,"bstar":0.00016681,"rev_number":29355,"period_min":94.01245492541,"perigee_km":469.87225976607,"apogee_km":471.53652822481,"semimajor_km":6848.8413939954,"source":"CELESTRAK","updated_at":"2026-09-20T09:00:39.140134Z"}}